OPS 4682 DEB, 51504

Orbit data source: Space-Track

OPS 4682 DEB, 51504 is space debris in LEO originally from a launch on Sat, 03 Apr 1965 UTC launched from the Air Force Western Test Range (AFWTR). Debris objects in space refer to the collection of defunct objects orbiting the Earth. Examples of debris include non-operational satellites, rocket bodies, and fragments generated from explosions, collisions, or faulty payload assembly.

Loading next visibility...
Identifier
51504, 1965-027GQ
Orbit
LEO
Country
Flag of USUS
Related business
Manufacturer
Unknown
Mission
Spacecraft
Bus & Motor
Unknown
Mass
Unknown
Launch date (UTC)
1965-04-03 (61 years ago)
Launch vehicle
Unknown
Launch site
Air Force Western Test Range (AFWTR)
Object type
Payload
Rocket body
Debris
Shape & HBR
Unknown
Radar Cross Section
Medium (>0.1 m² and <1 m²)

Expand to show TLE details & history
Last TLE update: 1 week ago

TLE from 1 week ago
0 OPS 4682 DEB
1 51504U 65027GQ  26201.88313304  .00000593  00000-0  20113-2 0  9992
2 51504  90.2367 355.7625 0030419  25.6202 334.6418 12.97520590526069
Epoch: 2026-07-20T21:11Z
TLE epoch observation values (Epoch: 2026-07-20T21:11:42.694Z)
Latitude
-0.00006°
Longitude
99.17382°
Altitude
1,253.677 km
Speed
7.238 km/s
True Right ascension
23h 43m 03s
True Declination
0° 00' 00"
Sunlit
Object was in daylight at epoch
Visualization orbit readout
Latitude
Unknown
Longitude
Unknown
Altitude
Unknown
Speed
Unknown
Apparent Right ascension
Unknown
Apparent Declination
Unknown
Sunlit
N/A
Visualization observer readout
Local Sidereal Time
11:13:38
Azimuth
Unknown
Elevation
Unknown
Doppler factor
Unknown
Orbital elements
Apogee altitude
1,292.209 km
Perigee altitude
1,245.686 km
Semi-major axis
7,647.084 km
Eccentricity
0.00304
Inclination
90.2367°
RAAN
355.7625°
Arg. of periapsis
25.6202°
True anomaly
334.492°
Mean anomaly
334.6418°
Eccentric anomaly
334.56695°
Mean motion
3.24563 °/min
Orbital period
110.92 mins
BSTAR
0.0020113
Loading maneuver chart data...
Computing Atmospheric mass density...
Loading historical data...
Loading historical data...
Loading historical data...
Loading historical data...
Loading historical data...
Loading historical data...
Loading historical data...

Documentation

Showing up to 5 results
|